Home > Weather > Saipan > Past weeks

Flag for Northern Mariana Islands Weather for the Past 2 Weeks in Saipan, Northern Mariana Islands

Now
83 °F

Scattered clouds.


Feels Like: 86 °F
Forecast: 72 / 79 °F
Wind: 23 mph from Northeast

Location: Saipan International Airport

Current Time: Feb 13, 2016 at 1:51:25 PM

Latest Report: Feb 13, 2016 at 12:54 PM


Visibility: 10 mi

Pressure: 30.06 "Hg

Humidity: 61%

Dew point: 68 °F

Location of SaipanLocation

Historic Weather in Saipan — Graph

°F

Saipan Temperature Yesterday

Maximum temperature yesterday: 85 °F (at 12:54 PM)
Minimum temperature yesterday: 74 °F (at 12:54 AM)
Average temperature yesterday: 78 °F

High & Low Weather Summary for the Past Weeks

 TemperatureHumidityPressure
High87 °F (Jan 31, 1:54 PM)100% (Feb 3, 5:54 AM)30.11 "Hg (Feb 3, 5:54 AM)
Low73 °F (Feb 13, 3:54 AM)48% (Jan 29, 1:54 PM)29.90 "Hg (Feb 6, 3:54 AM)
Average79 °F77%30.01 "Hg
* Reported Jan 29 11:54 AM — Feb 13 11:54 AM, Saipan, Weather by CustomWeather, © 2016

Note: Actual official high and low records may vary slightly from our data, if they occured in-between our weather recording intervals... More about our weather records

Advertising

Saipan Weather History for the Previous 24 Hours

 ConditionsComfort  
Time TempWeatherWind HumidityBarometerVisibility
11:54 AM
Sat, Feb 13
84 °FScattered clouds.22 mph51%30.09 "Hg10 mi
10:54 AM85 °FScattered clouds.25 mph54%30.10 "Hg10 mi
9:54 AM81 °FScattered clouds.21 mph65%30.11 "Hg10 mi
8:54 AM80 °FPartly sunny.20 mph63%30.11 "Hg10 mi
7:54 AM77 °FScattered clouds.22 mph71%30.09 "Hg10 mi
6:54 AM75 °FBroken clouds.22 mph76%30.07 "Hg10 mi
5:54 AM77 °FPassing clouds.22 mph72%30.05 "Hg10 mi
4:54 AM75 °FMild.22 mph76%30.03 "Hg10 mi
3:54 AM73 °FLight rain. Passing clouds.13 mph88%30.03 "Hg10 mi
2:54 AM74 °FPassing clouds.21 mph82%30.04 "Hg10 mi
1:54 AM75 °FPassing clouds.22 mph76%30.06 "Hg10 mi
12:54 AM75 °FPassing clouds.20 mph79%30.07 "Hg10 mi
11:54 PM
Fri, Feb 12
77 °FPassing clouds.18 mph74%30.08 "Hg10 mi
10:54 PM75 °FPassing clouds.22 mph78%30.07 "Hg10 mi
9:54 PM77 °FPassing clouds.20 mph74%30.08 "Hg10 mi
8:54 PM77 °FPassing clouds.21 mph74%30.07 "Hg10 mi
7:54 PM76 °FPassing clouds.20 mph77%30.06 "Hg10 mi
6:54 PM76 °FPassing clouds.20 mph77%30.04 "Hg10 mi
5:54 PM79 °FScattered clouds.24 mph70%30.03 "Hg10 mi
4:54 PM79 °FScattered clouds.20 mph70%30.01 "Hg10 mi
3:54 PM81 °FScattered clouds.25 mph69%29.99 "Hg10 mi
2:54 PM84 °FScattered clouds.26 mph59%29.99 "Hg10 mi
1:54 PM83 °FScattered clouds.25 mph65%30.00 "Hg10 mi
Weather by CustomWeather, © 2016

See weather overviewHow to use our weather pages